Theta_e
327 328 328 328 329 330 328 330 331 328 324 325 327 327 326 326 327 328 328 328 329 328 327 326 326 325 325 325 326 326 326 326 326 326 327 327 327 327 327 327 327 326 326 326 325 325 325 326 327 327 327 326 324 325 326 326 326 326 326 324 322 321 319 316 313 313 312 313 313 312 312 311 310 309 309 309 308 308 308 309 308 308 308 308 307
327 327 327 327 329 330 330 330 331 328 326 326 326 326 325 323 324 327 328 328 328 327 326 325 324 324 324 324 323 324 325 326 326 325 326 325 325 326 326 327 326 325 325 325 324 324 324 325 326 327 327 326 324 324 325 326 326 326 326 324 322 321 319 315 313 312 312 313 313 312 311 311 310 310 309 309 308 308 309 309 309 309 309 309 308
327 327 327 328 329 329 329 330 331 330 328 327 325 325 324 323 322 325 329 329 328 327 326 325 324 322 322 321 321 321 323 324 325 325 325 324 324 325 326 326 326 325 325 325 324 323 323 324 325 326 327 326 325 324 325 326 325 325 326 324 323 322 320 315 312 312 312 312 312 311 311 310 309 310 310 309 308 308 308 309 309 309 309 309 309
326 327 327 328 328 328 328 329 331 331 328 327 325 323 323 323 322 325 329 329 328 328 327 326 323 320 319 320 320 320 321 323 325 325 324 324 324 324 324 325 325 326 326 325 323 322 323 324 325 325 326 326 325 324 325 325 325 325 325 325 324 322 319 315 312 313 315 315 314 311 311 311 310 310 310 310 308 308 308 308 309 310 310 310 310
327 327 327 327 327 328 328 328 329 330 328 326 324 323 322 322 321 322 326 328 328 327 327 326 324 321 319 319 320 319 320 322 323 323 324 324 324 324 323 323 324 325 326 325 323 322 322 323 323 324 324 325 324 324 325 325 325 325 324 325 324 321 320 316 313 316 319 318 316 314 311 311 311 310 310 310 309 309 309 308 309 311 311 311 311
326 327 327 327 327 328 328 327 328 329 328 325 323 322 322 322 321 320 323 328 328 327 327 326 325 323 321 319 319 319 319 320 320 320 321 323 323 324 323 322 323 324 324 324 323 323 323 322 322 323 323 324 323 324 324 325 325 324 324 324 324 323 323 320 316 318 320 318 316 314 312 311 311 310 310 310 310 310 310 310 310 312 312 312 312
325 327 327 327 327 327 327 328 328 328 327 325 323 322 322 322 320 319 322 327 328 328 328 326 324 323 322 321 320 320 320 320 320 320 320 322 323 323 323 322 323 323 323 323 323 323 323 323 322 322 322 322 322 323 324 324 324 324 323 324 324 323 324 323 320 320 319 316 315 314 312 311 311 311 311 311 310 310 311 311 311 312 312 312 312
325 326 327 327 327 327 327 328 328 327 326 325 323 322 322 321 321 320 322 326 328 327 325 324 323 323 323 323 322 320 319 320 320 320 321 323 324 323 323 323 322 323 322 322 323 323 323 323 323 322 322 322 322 322 323 324 324 323 323 324 324 324 324 323 322 320 317 315 315 313 312 312 312 311 311 311 310 311 311 312 312 313 313 313 313
323 325 326 327 328 327 327 328 329 326 325 325 324 322 322 323 322 321 322 326 326 324 322 322 323 323 324 324 322 320 320 319 319 320 322 324 324 324 323 323 322 323 323 323 323 323 324 324 323 322 322 322 323 323 323 323 324 323 324 324 324 324 324 323 322 319 316 315 315 313 312 312 312 312 312 312 312 312 312 312 312 313 313 313 313
321 323 324 325 326 327 327 328 328 327 326 326 326 324 323 323 322 321 323 324 322 322 323 323 323 323 323 323 323 322 321 320 320 320 321 322 323 323 323 323 323 323 323 323 323 324 325 325 324 323 323 323 324 324 323 324 324 323 323 324 323 323 322 322 320 319 317 316 315 313 312 312 313 314 314 314 314 313 313 312 313 313 313 312 313
318 321 323 324 324 326 327 327 327 327 326 326 327 326 324 323 323 323 322 322 322 323 324 323 323 323 323 322 322 322 322 322 322 321 321 321 321 322 322 322 323 323 323 323 323 324 324 325 325 325 325 325 324 324 324 324 324 323 323 323 323 322 321 320 319 318 316 315 315 314 312 312 314 315 315 315 315 314 314 313 313 312 312 312 313
316 318 320 322 323 324 325 326 327 327 327 327 327 326 326 324 323 324 322 321 322 324 324 323 323 323 322 321 320 321 322 323 322 322 321 321 321 321 321 322 322 322 322 322 322 322 322 322 322 324 325 324 324 324 325 323 322 321 322 322 322 321 320 319 318 316 314 314 315 314 312 312 314 315 315 315 314 314 314 313 313 313 313 313 314
314 315 317 319 321 322 324 325 326 327 327 327 326 327 326 324 323 324 322 321 324 325 323 322 323 322 321 319 319 321 323 323 322 322 321 321 322 321 321 321 321 322 322 322 321 320 320 320 321 323 324 324 323 324 323 321 321 321 320 320 321 320 319 318 316 315 315 315 315 314 313 314 315 316 316 316 316 315 315 315 315 315 316 316 317
313 314 314 316 318 320 322 323 324 325 326 326 327 327 327 325 324 324 323 323 325 324 322 322 322 322 321 319 320 322 323 323 322 322 321 322 322 321 321 321 321 321 322 322 321 320 320 320 320 322 323 323 323 323 321 320 322 323 321 320 320 319 318 316 316 315 316 316 316 315 315 316 317 317 317 317 317 317 317 316 316 316 316 316 317
311 312 313 314 316 318 320 322 323 324 325 325 326 327 326 325 325 324 324 325 325 323 321 322 322 322 321 321 321 322 323 323 323 322 322 322 321 321 321 320 320 321 322 322 321 320 320 319 320 320 321 321 321 322 321 321 323 323 322 321 321 319 318 317 317 317 317 317 317 317 317 317 317 317 317 317 317 317 316 316 315 316 316 316 316
310 311 312 312 314 315 317 319 322 323 324 324 325 326 326 325 325 325 325 325 324 322 321 321 322 322 322 322 322 322 322 322 322 321 321 321 321 321 321 321 321 321 321 321 321 320 320 319 319 320 320 320 320 320 320 320 320 321 320 320 320 320 320 319 319 318 318 318 318 318 318 317 317 317 317 317 317 317 316 316 316 316 316 316 316
308 309 310 311 312 313 314 316 318 321 323 322 322 323 324 324 325 325 324 324 323 322 320 321 321 321 322 322 322 322 322 322 321 320 320 321 321 321 321 321 321 321 321 320 320 320 320 320 320 320 320 319 319 318 318 318 318 318 318 318 318 319 319 319 319 319 318 318 318 318 318 317 317 317 317 317 317 317 317 317 316 316 316 316 316
306 308 309 310 311 311 312 313 314 316 319 319 319 320 321 321 322 323 323 322 322 321 320 318 318 320 320 321 321 321 321 321 320 319 319 319 319 319 319 320 321 320 320 319 319 319 320 320 320 319 319 319 318 318 318 318 318 319 318 318 317 318 318 318 318 318 318 318 317 317 317 317 317 316 316 316 316 315 315 315 315 314 314 314 313
304 306 307 309 310 310 311 312 312 313 315 315 315 316 317 317 316 317 319 321 321 320 318 315 315 317 319 319 319 320 320 319 319 319 319 319 319 318 318 320 320 320 319 319 319 319 319 319 319 318 318 318 317 317 318 318 319 319 318 318 318 318 317 317 317 316 316 316 316 316 316 315 315 315 315 315 314 313 313 312 312 311 310 309 308
302 304 305 307 308 309 310 310 311 311 311 312 311 312 312 312 312 313 315 318 320 319 317 314 313 314 315 316 317 317 317 317 317 317 317 318 319 319 319 319 320 319 319 319 319 319 319 318 318 317 317 317 317 317 317 318 318 318 318 318 318 317 316 316 315 315 314 313 313 313 312 312 312 311 310 309 308 308 307 306 306 305 305 304 304
301 302 304 305 307 308 308 309 310 310 310 310 310 309 308 307 308 309 310 313 317 318 315 313 312 311 310 312 313 314 315 315 315 316 318 318 319 319 319 319 319 319 318 318 318 318 318 317 317 317 317 317 317 317 317 317 317 318 317 317 317 317 316 315 314 313 312 310 309 308 307 306 306 305 304 304 303 303 303 302 302 302 302 302 302
301 301 302 303 305 306 307 307 308 309 309 309 309 309 308 307 306 306 306 307 311 314 312 311 311 310 309 310 311 312 314 315 315 317 319 320 319 319 319 319 319 319 319 318 318 318 318 318 318 318 318 318 318 318 318 317 317 317 316 316 315 315 314 313 311 310 309 307 306 305 304 304 303 303 302 302 302 301 301 301 301 301 301 302 302
301 301 300 301 302 304 305 306 307 308 308 309 308 308 308 308 307 306 305 305 307 309 308 307 308 308 309 309 309 310 312 315 317 318 319 319 319 319 319 319 319 318 318 317 318 318 319 319 318 318 318 318 317 316 315 315 314 314 313 313 312 311 310 309 308 307 306 305 304 303 302 302 301 301 300 300 300 299 299 299 299 299 300 300 300
301 301 301 300 300 301 303 304 305 306 307 308 308 308 307 307 306 306 306 306 306 307 307 307 307 308 309 309 309 309 309 311 314 316 317 317 317 317 316 315 314 314 314 313 313 314 315 316 315 315 315 314 313 312 311 310 310 309 308 307 306 305 304 304 303 302 301 301 300 300 300 299 299 298 298 298 298 298 298 297 297 297 297 297 297
301 301 301 301 300 300 300 301 303 305 306 306 306 307 306 306 306 305 305 306 306 306 305 305 305 306 307 308 308 308 307 307 309 311 312 313 313 313 313 311 308 307 307 308 308 307 308 309 309 309 309 308 308 307 306 304 303 303 302 301 301 300 300 300 300 299 299 299 299 298 298 298 298 298 297 297 297 296 296 296 296 296 297 296 297
300 301 301 301 301 300 300 299 300 302 304 305 305 305 305 305 304 304 304 305 305 305 304 303 303 303 304 304 305 305 305 305 306 306 307 308 308 308 308 308 306 303 302 303 304 304 304 305 305 305 304 304 303 302 301 300 300 300 300 300 300 300 300 299 299 299 298 298 298 298 297 297 297 297 297 296 296 297 297 297 297 297 297 297 297
300 300 300 300 300 301 300 299 298 299 301 303 303 303 303 303 303 303 303 303 303 303 303 303 303 303 303 303 303 303 303 303 303 303 304 304 304 304 304 305 305 303 301 300 301 301 301 301 302 302 301 300 300 300 299 299 299 300 300 300 300 300 299 299 298 298 298 297 297 297 297 296 296 297 297 297 297 297 297 297 297 297 297 297 298
300 300 300 300 300 300 300 300 299 298 298 299 300 301 301 301 301 301 302 302 302 302 302 302 302 302 302 303 303 303 303 303 303 303 303 303 302 302 303 303 304 303 301 299 299 300 300 300 300 300 299 299 299 299 300 300 300 300 300 300 300 299 298 298 297 297 297 296 296 296 296 297 297 297 297 297 297 297 297 297 297 297 297 297 297
300 300 300 300 300 300 300 300 300 299 298 298 297 298 299 300 300 300 300 300 300 301 301 301 301 301 301 301 301 301 301 301 302 302 302 302 302 303 303 303 303 302 300 299 299 300 300 300 300 299 299 299 299 300 300 300 300 300 300 299 298 298 297 296 296 296 296 296 297 297 297 297 297 297 297 297 297 297 297 297 297 297 297 297 297
299 299 299 299 299 299 300 300 300 300 299 299 298 298 298 298 299 299 299 299 299 299 299 299 300 300 300 300 300 299 299 299 299 300 300 300 301 301 301 301 300 300 299 299 299 299 299 299 299 299 299 300 300 300 300 300 300 299 299 298 297 296 296 296 297 297 297 297 297 297 297 297 297 297 297 297 297 296 296 296 296 296 296 296 296
298 299 299 299 299 299 299 299 300 300 300 299 299 299 298 298 298 297 297 297 297 298 298 297 297 298 298 298 298 298 298 298 297 298 298 298 298 298 298 298 298 298 298 298 299 299 300 300 300 300 300 300 300 300 300 299 298 297 297 296 296 297 297 297 297 297 297 297 297 297 297 297 297 296 296 296 296 296 296 295 295 295 295 295 295
298 298 298 298 298 298 298 299 299 300 300 299 299 299 299 299 298 298 297 297 297 297 297 297 297 297 297 297 297 297 297 297 297 297 297 297 297 298 298 298 299 299 299 299 299 300 300 300 300 300 299 299 298 298 297 297 296 296 297 297 297 297 297 297 297 297 297 296 296 296 296 296 296 295 295 295 295 295 295 295 295 294 294 294 295
299 299 298 298 298 298 298 298 298 299 299 299 299 299 299 299 299 299 298 297 297 296 296 296 296 297 297 297 297 297 297 297 298 298 297 297 298 298 298 299 299 299 300 299 299 299 299 299 298 298 297 296 296 296 296 296 297 297 297 297 297 296 296 296 296 296 296 296 295 295 295 295 295 294 294 294 294 294 294 294 294 294 294 294 294
298 299 299 298 298 298 298 297 298 298 298 298 299 299 299 299 299 299 299 298 297 297 297 296 296 296 296 296 297 297 298 298 298 298 298 298 299 299 299 299 299 299 299 299 299 299 298 298 298 297 296 295 296 296 297 297 297 297 296 296 296 296 296 295 295 295 294 294 294 294 294 293 293 293 293 293 293 293 293 293 293 293 293 293 293
298 299 299 298 297 298 298 297 298 298 298 298 298 299 299 299 299 299 299 298 298 298 297 297 297 296 296 296 296 297 297 298 299 299 299 299 299 299 299 299 299 299 299 299 299 298 298 298 297 296 295 296 296 296 296 296 296 296 296 296 295 295 294 294 294 293 293 293 293 293 292 292 292 292 292 292 292 292 293 293 292 292 292 292 293
297 298 299 298 297 297 298 297 297 298 298 297 298 298 299 299 299 299 299 298 298 298 297 297 297 297 297 296 296 296 297 298 298 299 299 299 299 299 299 299 299 299 299 298 298 298 297 297 296 295 296 296 296 296 296 296 296 295 295 295 294 294 293 293 293 292 292 292 292 292 291 291 291 291 291 292 292 292 292 292 292 292 292 292 292
297 298 298 297 297 297 297 297 297 297 297 297 297 297 298 298 298 298 298 298 297 297 297 297 297 297 296 296 296 296 296 297 297 298 298 298 299 299 299 299 299 298 298 298 297 297 297 296 295 295 296 296 296 296 295 295 295 294 294 293 293 292 292 292 292 291 291 291 291 291 291 290 290 290 290 291 291 291 291 291 291 292 292 292 292
298 298 297 296 296 297 297 297 297 297 297 296 296 297 297 297 297 297 297 297 297 296 296 296 296 296 296 296 296 295 295 296 296 297 297 298 298 298 298 298 298 298 298 297 297 297 296 295 295 296 296 296 296 295 295 294 294 293 293 292 292 292 292 291 291 291 290 290 290 290 290 290 290 290 290 290 291 291 291 291 292 292 292 292 292
298 298 297 296 296 296 297 297 297 297 297 297 297 297 296 297 297 297 296 296 296 296 296 296 295 295 295 295 295 295 295 295 295 295 295 296 296 297 297 297 297 297 297 297 296 296 295 295 295 295 295 296 295 294 294 293 293 292 292 292 292 291 291 291 290 290 290 289 289 289 289 289 289 290 290 290 290 291 291 291 291 292 292 292 292
298 298 298 297 297 296 296 297 297 297 297 297 297 297 296 296 296 296 296 296 296 296 295 295 295 295 295 295 295 294 294 295 295 294 294 294 294 295 296 296 296 296 296 295 295 294 294 295 295 295 295 294 294 293 293 292 292 292 292 291 291 291 290 290 290 290 289 290 289 289 289 289 289 290 290 290 290 290 290 291 291 292 292 292 292
297 297 297 297 297 297 297 297 297 297 297 297 297 296 296 296 296 296 296 296 296 295 295 295 295 294 294 294 294 294 294 294 294 294 293 293 293 294 294 295 295 295 295 295 295 295 295 295 295 295 294 294 293 292 292 292 291 291 291 291 291 290 290 290 290 290 290 290 290 290 290 289 289 289 289 289 289 290 290 290 290 291 291 291 292
297 297 296 297 297 297 297 296 296 296 296 296 296 296 295 295 295 295 295 295 295 295 295 295 294 294 293 293 293 292 293 293 293 293 294 294 294 294 294 294 295 295 295 295 296 295 295 295 295 294 293 293 292 291 291 291 291 291 291 291 291 291 290 290 290 290 290 290 290 290 290 290 290 289 289 289 289 289 290 290 290 290 291 291 291
296 296 297 297 297 297 297 296 296 296 296 296 296 295 295 294 294 295 295 294 294 294 294 294 294 293 293 293 292 292 292 293 293 293 294 294 294 294 295 295 295 295 295 295 295 295 295 294 294 293 293 292 292 291 292 291 291 291 291 291 291 291 290 290 290 290 290 290 290 290 290 290 290 289 289 289 290 290 289 290 290 290 290 290 290
296 297 297 297 297 297 297 296 296 296 296 296 295 295 295 294 294 294 294 294 294 294 294 294 293 293 293 292 292 292 292 293 293 294 294 294 294 294 294 294 294 294 294 294 294 294 294 293 293 293 292 292 292 292 292 292 291 291 291 291 291 290 290 290 290 290 290 290 290 290 290 290 289 289 289 289 290 290 289 289 290 290 289 290 290
297 297 297 297 297 297 296 296 296 296 296 296 295 295 295 294 293 293 294 294 294 294 293 293 293 293 292 292 292 292 292 292 292 293 293 293 293 294 294 294 294 294 294 294 293 293 293 293 292 292 292 292 292 292 292 292 291 290 290 290 289 289 289 289 289 289 289 289 289 290 289 289 290 290 289 289 289 290 289 289 290 290 289 289 289
297 297 297 297 296 296 296 296 296 296 296 296 296 295 295 294 293 293 293 294 294 294 293 294 293 293 292 292 292 292 292 292 292 292 292 292 292 292 292 292 292 293 293 293 293 293 293 292 292 292 292 292 292 292 292 291 291 290 289 288 288 288 289 289 289 289 289 289 289 289 290 290 290 290 290 289 289 289 289 290 290 289 289 289 289
297 297 297 297 297 296 296 296 296 296 296 296 296 295 295 294 294 293 293 294 294 293 293 293 293 293 292 292 292 292 292 292 292 292 291 291 291 291 291 291 291 291 291 291 292 292 292 292 292 292 292 292 292 292 291 291 290 289 288 288 288 288 289 290 290 290 290 290 289 290 290 290 290 290 290 289 289 290 290 290 290 290 289 289 289
297 297 297 297 296 296 296 296 296 296 296 296 296 296 295 294 294 294 293 294 293 293 293 293 294 293 292 292 292 292 292 292 292 291 291 291 291 291 290 290 290 290 290 290 290 290 291 291 292 292 292 292 292 292 291 290 289 288 288 288 288 289 290 290 290 290 290 290 290 290 290 290 290 289 289 289 289 289 289 290 290 290 289 289 289
296 297 296 295 295 295 296 296 296 296 296 295 296 296 295 294 294 294 294 293 293 293 293 294 294 293 292 292 292 292 292 292 292 292 292 292 292 291 291 290 289 289 290 290 289 289 289 289 289 289 289 290 291 291 290 289 288 288 288 289 289 290 290 290 290 290 290 290 290 290 290 290 289 289 289 288 288 288 289 289 289 289 290 289 289
296 296 295 294 294 295 296 296 296 296 296 295 295 296 295 295 294 294 294 293 293 293 293 294 294 293 292 292 292 293 293 293 293 293 292 292 292 292 291 290 289 289 289 290 289 288 288 288 287 287 287 288 289 290 289 288 288 289 290 290 290 291 291 290 290 290 290 290 289 289 289 289 289 288 288 287 286 286 287 288 289 289 290 289 289
296 296 294 293 294 295 295 295 295 295 296 295 295 295 295 295 294 294 293 293 293 293 293 294 294 294 293 292 292 293 293 293 293 292 292 292 292 292 291 291 290 289 289 290 289 289 288 288 288 287 286 287 287 288 289 289 290 290 290 290 291 291 290 290 290 290 290 289 289 289 289 289 288 287 286 285 284 285 286 287 288 289 290 289 288
Wind_Speed
10 12 16 18 20 24 25 23 22 23 23 22 22 22 21 21 20 20 22 23 23 23 23 22 21 20 19 18 18 18 18 18 18 19 19 19 19 19 18 20 20 19 19 20 20 20 20 21 23 24 23 21 20 19 20 19 18 18 18 19 19 18 17 16 13 9 9 11 11 11 10 9 9 8 7 7 8 9 9 9 8 8 9 10 10
9 12 15 16 19 23 24 23 24 24 23 22 23 22 22 22 22 22 23 24 24 24 23 22 21 21 20 19 18 18 18 18 18 19 18 18 19 18 18 18 19 19 20 20 20 20 20 21 23 24 23 22 20 20 21 21 20 20 20 20 19 19 17 17 15 12 10 10 11 12 12 11 10 9 7 7 8 10 10 10 9 8 9 10 11
10 11 13 13 16 21 22 22 24 24 22 22 23 23 22 23 24 25 25 25 25 25 24 23 22 22 21 20 19 19 18 18 18 17 17 18 19 18 17 17 17 18 19 19 19 19 20 21 22 23 23 23 22 20 21 23 23 21 22 21 20 19 19 17 16 14 12 11 11 11 13 13 12 10 7 7 8 10 11 11 10 9 9 10 10
13 13 14 13 14 17 22 24 24 22 21 22 23 23 23 23 25 26 26 25 25 25 25 24 23 23 22 21 20 19 18 18 17 16 16 16 17 17 16 16 17 17 18 18 18 18 19 21 22 22 22 23 23 21 21 23 24 23 24 23 21 19 19 18 16 14 13 14 13 13 13 13 13 11 9 8 9 11 12 12 11 10 11 10 10
13 15 16 16 16 15 19 24 23 21 21 23 24 24 24 25 26 27 26 25 24 24 24 25 25 24 21 20 20 19 18 18 17 16 16 15 15 15 15 15 16 16 16 17 18 17 18 19 20 21 21 21 22 22 22 23 23 23 24 26 23 20 19 18 17 16 15 15 15 16 15 15 14 14 12 10 10 11 12 13 13 12 12 11 10
9 12 15 17 17 15 17 22 22 21 21 24 26 25 25 26 26 25 26 24 23 24 24 24 25 23 21 19 19 18 18 18 17 16 16 15 15 15 15 15 16 16 16 16 17 18 17 18 19 20 20 20 20 22 22 22 22 22 23 26 26 22 19 18 19 19 19 16 14 16 17 16 15 14 14 13 13 12 12 14 14 13 14 13 12
8 9 11 13 15 14 16 20 20 20 21 25 27 25 26 27 26 24 24 24 24 25 25 25 24 22 20 19 19 19 18 18 18 17 17 16 15 15 15 15 15 16 16 15 16 17 16 16 18 19 20 19 19 20 21 22 22 22 23 24 26 26 22 20 20 21 19 15 14 16 18 16 15 15 15 15 15 14 14 15 15 14 15 14 13
11 10 9 10 12 12 13 19 21 21 21 24 26 26 26 27 25 23 23 24 26 27 27 26 24 22 21 20 19 19 19 19 19 18 17 16 15 15 15 15 15 16 16 15 15 14 14 15 16 17 17 17 18 19 20 21 22 22 22 23 26 26 23 22 22 20 17 15 15 17 18 16 15 15 17 18 18 17 15 15 15 15 15 15 15
13 12 10 10 11 12 11 15 21 22 21 23 25 25 26 26 24 23 23 24 27 28 27 27 25 24 23 21 20 18 17 19 20 19 18 17 16 16 15 16 16 16 15 15 14 13 13 14 15 14 14 15 15 17 19 20 21 22 22 22 25 25 24 23 23 20 17 17 17 19 20 18 15 15 16 17 18 17 16 17 17 16 16 18 18
14 13 12 11 12 13 13 14 19 22 21 21 24 24 24 24 24 23 23 25 28 28 28 27 26 25 24 22 20 18 17 18 20 19 18 18 17 17 17 17 17 16 15 14 14 14 14 15 15 15 15 15 15 16 18 17 18 21 21 19 22 24 24 23 22 20 19 19 20 21 22 19 16 15 15 15 15 16 17 19 19 18 18 20 20
16 13 13 12 12 13 15 16 19 22 22 22 23 24 24 24 24 23 24 27 29 28 28 28 27 25 23 22 21 19 18 19 20 19 18 18 18 18 18 18 18 17 16 14 14 14 15 16 16 15 15 15 15 17 17 15 15 18 18 16 18 22 22 21 20 19 19 20 21 22 23 21 17 16 16 15 16 17 19 20 21 22 22 24 24
23 18 14 13 13 12 14 18 19 21 23 24 25 25 25 26 27 26 27 29 29 29 29 28 26 24 23 22 22 21 20 20 19 18 17 17 17 17 17 18 19 19 17 15 15 14 14 14 14 14 13 14 15 16 17 15 13 14 15 16 18 20 20 19 17 17 19 20 21 22 23 21 19 18 18 19 19 20 21 22 23 23 22 22 22
26 24 18 13 12 11 11 16 20 22 24 27 28 28 28 29 29 30 31 31 30 30 30 29 27 24 23 23 23 22 22 21 18 16 16 16 16 16 16 17 19 20 18 16 16 14 12 11 11 11 12 14 16 17 16 15 13 12 13 15 16 17 16 16 16 17 18 20 21 21 21 21 20 20 20 20 20 20 21 21 20 20 19 19 18
26 25 22 17 12 8 7 13 20 23 24 27 30 32 33 33 33 34 35 34 32 31 31 30 28 25 23 23 24 24 23 22 19 17 16 16 16 16 16 17 20 21 19 18 17 15 12 11 10 10 11 12 15 17 17 16 14 13 12 12 13 13 12 13 15 16 17 18 18 18 19 19 18 18 17 17 17 16 16 17 17 17 18 18 18
26 25 24 20 15 9 5 11 18 22 23 26 30 35 37 37 36 37 38 37 34 33 32 30 29 27 26 25 25 26 24 23 22 20 18 18 18 17 16 17 19 21 21 20 18 16 13 12 11 11 11 12 13 15 16 17 16 16 14 13 13 13 13 14 15 15 15 16 15 15 16 16 16 16 16 16 16 16 16 17 18 19 19 20 20
26 25 25 24 20 15 9 9 15 20 23 24 28 34 38 39 39 39 40 38 35 34 33 32 30 30 29 28 27 27 26 24 24 23 21 21 20 18 17 18 19 20 21 20 19 18 16 14 13 12 12 13 13 14 14 14 14 15 14 14 14 14 14 15 15 16 16 16 16 16 15 16 16 16 16 16 17 18 18 19 21 21 22 23 23
26 24 24 24 24 21 15 11 11 15 19 20 23 29 34 38 40 41 41 40 37 34 34 33 32 32 32 31 29 28 28 26 24 23 22 22 22 21 20 20 21 21 21 20 19 19 17 16 15 14 14 14 14 14 14 13 12 12 12 13 14 14 13 14 14 15 15 15 16 16 15 16 16 17 17 17 18 18 19 20 22 23 24 25 26
26 25 23 22 23 23 20 16 13 10 12 13 16 22 27 31 35 39 41 41 37 34 33 31 31 32 31 30 29 29 28 27 25 24 22 21 21 22 22 22 22 22 22 22 20 19 19 18 16 16 15 15 15 15 15 14 12 11 11 11 12 12 12 13 14 14 14 14 14 14 15 16 16 17 18 19 20 22 23 24 25 26 27 28 28
23 23 23 21 20 21 22 22 19 13 6 6 10 17 22 25 28 31 36 39 37 34 33 29 28 30 30 28 28 28 27 26 25 23 22 20 19 20 21 22 23 23 22 22 21 21 20 19 18 17 16 15 15 15 14 13 13 12 12 12 12 12 12 12 12 12 13 13 14 15 15 17 18 20 21 22 23 24 25 26 27 27 27 28 28
25 21 19 19 19 19 20 21 23 21 14 6 3 12 17 20 23 26 30 34 36 35 32 27 25 25 25 26 26 25 25 26 24 22 21 19 18 19 19 20 21 21 20 21 22 22 21 20 19 18 17 16 15 15 14 14 13 13 12 12 12 11 11 11 11 12 13 13 15 16 17 18 19 20 21 21 21 22 22 23 24 25 26 26 27
28 24 20 18 17 18 18 18 19 22 21 15 6 4 9 14 19 23 26 28 33 34 30 25 21 19 18 19 21 21 22 23 23 22 20 19 19 19 19 19 19 19 19 20 22 23 22 21 20 19 18 17 16 15 15 15 14 14 13 13 13 13 13 13 13 13 14 15 15 16 16 16 17 17 18 18 19 20 21 22 23 24 25 25 25
27 28 26 22 18 16 17 17 16 16 18 17 14 11 9 10 12 16 19 22 26 27 25 22 21 19 18 17 17 17 18 20 21 21 21 22 22 21 20 20 20 21 22 23 23 23 22 22 21 20 19 18 17 16 15 14 14 13 14 14 14 14 14 15 15 16 16 16 16 16 17 17 18 19 19 20 21 22 22 22 22 22 23 23 24
23 25 28 27 23 18 15 15 15 14 13 13 14 14 13 11 11 12 13 16 20 21 19 18 18 18 18 17 16 16 16 18 19 20 20 21 23 23 23 22 23 23 24 24 24 23 23 21 20 19 18 17 16 15 14 14 14 14 15 15 15 15 15 16 16 16 16 16 17 17 18 18 19 19 19 19 20 19 18 18 19 19 20 21 22
20 22 24 26 27 24 18 15 14 14 15 14 13 14 14 13 12 12 11 13 16 18 17 14 13 14 14 14 14 14 14 16 18 19 18 18 18 19 20 20 19 17 17 17 16 17 18 18 17 16 16 15 14 13 13 13 13 13 13 13 13 13 13 14 14 14 14 15 15 15 16 16 16 16 15 15 16 16 16 16 17 19 20 21 21
18 19 20 22 24 25 23 19 15 12 12 12 12 14 16 16 15 13 10 9 12 15 15 14 12 12 12 12 12 13 12 13 15 17 17 16 16 15 15 15 12 9 8 8 8 8 10 12 12 12 11 11 10 10 9 9 9 9 9 9 10 10 10 11 11 11 12 12 12 12 13 13 14 14 14 15 16 17 17 17 18 19 20 21 20
17 17 18 19 20 22 23 22 18 14 10 9 9 11 12 14 14 13 12 11 11 11 12 12 12 12 12 11 10 10 10 10 12 14 14 15 14 13 13 12 9 5 2 2 3 3 4 5 6 6 6 5 5 5 5 5 6 7 7 8 8 8 9 9 9 10 10 10 11 11 12 13 14 15 16 17 18 18 19 19 19 20 21 21 20
16 16 16 17 18 19 21 22 20 17 13 11 10 9 8 7 7 7 8 9 9 8 8 8 7 7 6 6 4 4 4 5 6 8 9 10 10 9 8 8 7 5 2 3 2 1 2 2 2 2 2 3 3 4 5 6 7 7 7 7 8 8 9 9 10 10 10 11 11 12 13 14 14 15 16 17 17 18 19 20 20 20 21 21 21
14 15 15 15 16 17 18 20 21 20 17 14 13 12 11 10 10 10 10 11 11 11 10 9 7 5 4 3 2 2 2 2 3 4 5 6 6 6 6 5 5 5 5 5 4 2 1 1 1 1 2 4 4 5 5 6 8 8 9 9 10 10 10 10 11 11 11 11 12 13 13 13 14 14 15 16 16 17 17 18 19 19 19 20 20
12 13 13 14 15 15 15 16 18 20 19 18 16 14 13 13 13 13 14 14 14 13 13 12 12 10 8 7 7 7 6 4 3 4 5 6 6 6 6 6 5 6 7 6 4 3 3 3 3 4 5 6 7 7 7 7 9 10 10 11 11 11 10 10 10 11 11 11 11 11 11 11 11 12 12 13 14 15 16 17 18 18 19 20 20
12 12 13 14 15 15 14 13 14 17 19 18 18 16 14 13 12 12 11 11 11 10 10 9 8 8 7 7 7 8 9 8 8 7 7 7 7 7 8 8 7 7 6 5 4 4 6 7 8 8 8 8 8 8 8 9 9 10 10 10 9 9 9 9 9 9 8 8 8 8 8 9 10 10 11 12 13 15 16 17 17 18 19 19 18
13 14 14 14 14 14 14 13 12 13 14 15 16 15 14 13 13 13 11 10 8 7 7 6 6 6 6 6 6 7 7 8 9 9 8 8 8 7 7 6 6 5 3 3 4 6 8 9 9 8 8 8 8 8 8 8 8 8 8 8 7 7 7 6 5 5 5 5 6 7 8 8 10 11 12 13 14 14 15 15 16 16 16 16 16
11 12 13 13 13 14 13 13 12 11 11 11 12 12 12 12 13 14 13 11 9 8 7 6 6 5 5 5 5 5 5 6 6 5 5 5 5 5 5 5 5 6 6 6 7 8 8 8 8 8 7 7 7 7 7 7 6 6 5 5 4 3 3 2 2 3 4 5 6 7 8 9 10 12 12 13 13 13 13 13 13 12 12 12 12
11 10 10 11 12 13 12 12 11 10 10 9 8 8 9 10 11 13 12 11 11 10 9 8 7 5 4 3 3 3 3 5 5 3 3 4 6 7 9 9 10 9 8 7 6 6 7 6 6 5 5 5 5 5 5 4 3 3 2 1 0 1 2 3 4 4 5 5 6 7 8 9 10 11 11 12 12 12 12 11 11 10 9 10 11
13 11 10 9 10 11 11 11 10 9 9 8 6 4 5 6 8 10 10 10 11 11 11 10 9 8 6 3 2 3 5 6 6 5 5 6 8 10 10 11 10 9 8 6 5 5 6 5 4 4 3 3 3 3 3 2 1 2 3 4 4 4 5 5 4 5 5 6 7 8 8 9 9 10 10 11 11 11 11 11 11 10 9 10 11
13 12 10 8 7 7 9 9 9 9 9 8 5 3 2 3 4 6 7 8 9 10 10 10 10 10 9 6 3 1 3 4 4 5 6 7 8 9 10 10 10 9 7 7 6 5 4 4 4 3 2 2 2 2 2 4 5 6 6 6 5 5 5 5 5 5 6 7 7 8 9 10 10 11 11 11 12 12 12 13 13 13 12 12 12
12 11 10 8 4 4 6 7 8 10 11 10 7 3 0 1 1 2 4 6 7 8 8 9 10 10 9 8 5 3 1 2 3 4 5 7 8 8 8 8 9 8 7 6 6 5 4 4 3 2 2 2 1 4 7 7 7 7 7 6 6 6 6 5 6 6 7 7 8 9 9 10 10 11 11 12 12 13 14 14 13 13 13 13 13
10 9 8 6 3 3 5 7 8 10 12 12 10 7 3 2 2 2 3 4 5 6 7 8 9 10 9 7 5 4 2 0 2 4 5 7 8 8 8 8 9 8 7 7 6 5 5 4 3 3 2 1 5 8 8 8 7 7 7 7 7 6 6 6 6 6 7 7 8 9 10 10 11 11 11 12 12 13 14 14 13 12 13 13 12
9 8 7 5 3 2 4 6 7 9 11 12 11 9 8 6 4 4 4 5 5 6 7 8 8 8 7 6 5 4 2 1 2 4 6 8 9 9 9 10 10 10 9 8 8 7 6 4 4 4 3 4 8 9 9 8 8 8 7 7 6 6 6 6 6 7 7 8 9 9 10 11 11 11 11 12 12 13 13 14 14 13 14 14 14
7 7 7 6 5 4 3 5 6 8 9 10 10 9 9 9 7 5 5 6 6 7 6 7 7 6 5 5 4 4 4 4 4 5 7 10 12 13 13 12 12 12 11 10 9 7 6 6 6 5 6 8 10 10 9 9 8 8 7 6 6 5 6 6 7 8 9 10 10 11 10 10 11 11 11 11 11 12 13 14 15 15 15 15 16
7 8 8 7 6 6 4 4 6 7 8 8 9 9 10 10 9 7 6 7 7 6 5 6 6 5 3 2 3 3 5 6 7 7 7 8 11 13 13 12 12 11 9 8 6 7 8 7 7 8 9 10 10 10 10 9 9 8 7 7 6 6 7 7 7 8 9 10 11 12 12 10 9 9 10 10 10 11 12 12 14 14 14 14 15
6 8 8 6 6 6 5 4 5 7 7 8 8 9 11 12 11 9 7 7 7 6 5 5 5 5 4 3 3 5 7 8 9 9 7 6 9 11 11 11 10 8 5 4 7 10 10 9 9 10 10 10 10 10 10 10 9 8 7 7 7 6 7 7 7 8 8 9 10 10 10 10 8 8 9 10 10 10 11 11 12 13 14 15 15
7 9 9 6 7 8 6 5 4 5 6 7 8 9 10 11 11 10 8 7 7 7 6 5 6 8 9 9 9 8 8 8 8 5 2 2 4 5 6 6 5 5 6 9 11 12 11 10 11 11 10 10 10 11 11 10 9 8 6 6 5 5 6 6 7 7 6 6 6 7 7 7 7 8 9 10 10 10 10 11 11 12 13 15 15
11 12 10 8 9 9 6 4 3 4 6 7 8 9 10 11 11 10 8 7 7 7 6 5 7 10 10 10 12 11 6 2 1 5 9 9 8 9 9 9 10 11 12 13 13 12 12 11 10 10 10 10 11 11 9 8 7 6 5 4 3 3 4 4 4 4 4 4 4 5 5 5 6 7 8 8 9 10 11 12 12 12 12 13 14
12 10 7 5 7 6 4 1 1 4 5 6 8 9 10 11 11 10 8 7 5 5 6 6 8 10 9 9 10 8 6 8 10 12 13 13 12 13 13 12 13 13 12 12 12 11 10 10 9 8 9 10 11 10 8 6 5 4 4 3 2 2 2 1 1 2 3 4 4 5 5 4 5 7 7 6 7 8 10 12 13 12 11 11 12
9 5 4 3 2 2 1 0 2 4 6 7 8 9 10 11 10 9 8 6 4 4 6 6 8 10 10 9 8 4 8 12 12 11 12 11 11 11 11 11 10 10 9 9 9 9 9 9 9 9 9 10 10 8 7 5 4 4 3 3 2 1 1 2 1 2 3 4 4 4 4 5 5 7 7 6 6 6 8 11 12 12 11 11 12
5 2 2 4 4 2 1 2 3 5 7 8 8 8 9 10 10 9 7 4 3 5 6 5 6 11 11 9 6 3 8 12 12 11 11 11 10 9 9 8 8 8 7 7 7 7 7 8 8 8 9 9 8 6 5 4 4 4 3 3 2 2 1 2 3 3 4 4 4 4 4 5 6 7 7 6 5 5 6 9 10 10 10 12 13
3 3 4 5 4 3 4 4 4 5 6 8 8 8 8 8 8 8 6 4 3 4 5 5 4 10 12 10 6 3 8 11 12 11 11 11 10 9 8 7 6 5 5 5 5 5 6 7 7 7 7 7 6 6 5 4 4 4 4 3 3 3 3 3 3 4 4 4 4 4 4 5 5 6 6 6 5 5 6 7 7 7 8 12 14
4 5 5 6 5 6 6 5 4 4 5 6 8 8 7 7 7 6 6 4 3 3 6 7 4 7 9 8 4 5 8 9 10 10 10 10 10 9 7 6 5 4 3 3 3 4 5 6 7 6 6 6 6 5 5 5 5 4 4 4 4 3 3 3 3 3 4 4 4 4 4 5 5 6 7 7 6 6 5 5 6 6 6 9 12
6 6 7 8 8 8 7 6 6 6 4 4 6 8 7 6 5 5 5 5 4 4 6 7 4 4 6 4 2 5 6 6 7 7 6 6 7 7 7 6 4 3 2 2 3 3 3 4 4 4 4 5 4 4 4 5 5 4 4 4 4 4 3 3 3 3 4 4 5 5 5 6 7 7 8 9 9 8 7 5 4 5 5 7 9
7 6 7 9 10 9 7 6 7 7 6 5 5 6 7 6 5 4 5 6 5 4 5 6 4 1 3 1 2 2 2 2 2 3 3 3 4 6 7 7 4 2 1 2 3 3 3 3 3 3 3 3 4 4 5 5 5 5 5 5 4 3 3 2 2 3 4 4 6 6 6 7 8 9 11 11 10 8 6 4 3 3 4 6 7
7 7 7 9 9 8 7 7 8 8 8 7 5 5 6 5 4 4 5 6 6 7 7 7 5 2 0 2 3 2 2 2 3 3 3 3 2 3 5 7 6 3 1 2 3 4 4 3 3 3 3 4 4 5 5 6 6 6 5 5 4 2 1 2 2 3 3 5 6 7 7 7 9 11 12 11 9 7 5 3 1 1 2 4 5
Wind_Direction
296 278 268 262 248 240 240 236 227 224 228 233 231 224 219 216 219 225 221 215 214 216 218 217 215 216 215 212 213 215 216 216 216 218 219 219 218 216 213 211 211 209 207 209 211 211 210 209 208 208 210 212 213 214 214 213 211 212 215 215 217 221 225 234 238 223 203 197 198 202 204 206 209 209 216 220 217 217 217 219 226 233 234 233 232
306 290 279 270 253 244 241 232 225 223 224 229 230 226 225 218 213 218 219 213 212 215 217 217 215 217 218 214 214 215 215 215 214 214 215 216 216 214 211 210 208 205 205 208 212 212 209 208 206 206 208 209 211 214 215 215 214 213 213 212 213 216 220 228 231 225 220 211 202 202 205 209 212 213 222 230 226 226 229 232 239 246 246 241 238
297 288 285 278 259 254 252 238 227 224 224 224 223 223 227 223 216 218 218 211 211 215 218 219 218 218 219 216 216 216 215 214 213 213 213 215 215 214 213 213 209 207 209 210 211 211 209 207 205 203 205 208 212 216 216 215 214 215 214 212 214 217 218 222 226 226 230 231 222 213 207 208 214 219 229 239 233 230 231 237 246 251 249 244 242
287 281 282 281 271 268 266 253 235 225 222 220 218 220 225 225 221 224 223 213 211 215 217 219 219 219 218 215 214 216 214 213 212 212 213 214 213 214 215 215 212 210 212 212 210 209 207 205 202 202 206 209 213 216 216 213 213 216 216 213 215 218 216 217 221 228 241 244 242 238 226 217 217 222 229 235 232 230 229 233 240 242 242 243 245
288 281 275 275 278 276 271 262 246 229 221 217 217 220 222 222 220 225 226 217 213 216 215 215 218 218 216 213 211 212 211 213 213 212 211 209 209 213 215 213 211 210 210 210 209 207 206 205 203 204 207 208 211 213 213 213 214 215 214 214 217 217 215 217 220 228 244 251 247 246 240 230 224 225 232 237 234 232 231 229 230 232 235 239 246
303 292 282 277 281 280 270 262 248 231 222 216 216 218 218 216 216 222 225 218 216 220 217 216 218 218 216 211 207 208 209 211 213 211 209 208 208 208 209 209 208 206 205 205 206 207 207 208 209 210 211 210 209 211 212 213 214 214 214 214 216 216 216 219 221 231 245 248 242 244 243 236 229 225 228 235 238 238 236 231 228 229 235 242 249
308 299 296 291 290 284 266 253 238 226 223 219 218 218 215 213 215 220 220 216 220 226 224 221 220 218 216 209 202 203 204 206 208 207 206 207 206 204 203 206 206 202 200 201 202 205 208 209 210 212 215 213 210 211 212 213 214 216 218 215 214 216 220 222 225 236 244 236 227 237 242 239 235 228 224 230 237 239 237 236 236 239 244 250 257
310 294 292 293 294 290 267 246 232 225 225 223 221 218 214 214 216 218 217 216 222 228 225 220 215 211 209 206 202 201 201 202 204 203 201 200 201 201 201 203 204 200 198 197 199 202 206 207 208 211 211 208 208 210 211 214 215 215 215 212 211 216 222 225 229 236 238 227 222 232 238 238 238 232 226 228 234 238 241 244 249 253 255 259 263
319 301 290 279 277 281 272 246 233 229 228 225 222 219 216 215 214 214 216 218 222 222 216 210 207 205 205 207 208 206 204 203 202 200 198 195 195 196 196 197 198 196 193 192 192 195 199 203 206 207 204 201 206 210 210 212 214 212 211 210 211 216 221 225 229 233 231 226 226 230 234 237 237 234 232 234 240 247 250 252 258 263 265 266 268
325 311 302 287 268 263 261 245 233 232 232 229 225 222 219 216 213 213 216 217 216 213 208 205 205 205 206 209 212 215 214 206 199 196 196 194 194 194 193 193 193 191 189 188 189 192 195 199 201 201 200 202 205 204 202 208 214 213 214 214 212 215 219 223 228 233 232 229 229 230 233 234 233 235 239 244 250 255 256 256 261 265 267 270 271
344 322 305 297 286 268 255 244 235 232 234 233 230 228 224 219 216 216 215 214 212 210 210 210 208 207 209 213 215 218 216 207 198 194 193 192 193 194 194 194 191 189 189 190 191 192 192 194 196 198 202 205 204 199 195 201 211 212 212 214 213 214 219 224 231 235 234 231 230 233 236 237 237 239 243 247 251 255 259 262 265 267 268 271 273
359 344 321 300 292 283 265 252 244 238 234 232 232 231 226 222 219 217 214 211 210 213 215 214 211 209 211 215 217 214 210 206 203 200 196 193 194 195 195 194 191 188 189 191 190 189 191 193 197 201 205 207 207 205 197 191 192 197 199 204 210 215 221 228 231 232 231 229 230 235 238 238 239 240 242 244 245 250 255 258 261 265 267 269 272
5 357 347 325 299 292 282 264 252 243 235 231 231 229 225 222 218 212 208 208 209 213 217 216 213 213 213 214 212 207 206 207 207 206 206 205 204 201 197 195 195 193 192 193 193 192 194 199 201 201 202 205 208 210 205 191 183 186 193 200 209 216 223 226 224 224 228 229 233 236 234 231 232 233 235 238 242 244 247 248 249 252 253 256 260
15 8 2 353 333 314 286 258 248 242 235 230 229 227 223 220 216 208 204 205 208 213 215 214 214 213 210 208 206 204 206 208 209 210 211 212 212 209 203 200 199 197 196 196 198 198 199 201 200 193 189 193 199 204 206 202 199 201 201 200 204 209 212 213 213 216 220 222 226 228 225 223 225 226 228 232 236 237 239 242 245 247 250 254 259
24 20 15 9 360 344 290 246 240 238 233 227 224 223 220 217 213 208 205 205 207 210 212 213 215 213 209 206 205 205 208 210 211 212 209 208 209 208 206 205 203 199 198 198 199 199 201 201 200 194 184 180 184 190 197 202 206 210 209 205 203 203 202 202 204 206 209 210 214 216 217 219 222 226 230 233 237 240 245 251 256 258 261 265 268
29 27 25 23 16 5 339 279 251 238 233 228 221 219 218 216 212 209 209 207 205 207 211 214 216 214 211 209 208 208 211 212 213 212 209 207 208 207 205 205 203 199 198 199 200 200 202 204 204 202 194 183 177 180 190 201 209 211 210 208 207 206 204 204 207 210 212 216 220 223 227 230 233 238 243 246 250 254 258 263 267 270 273 275 277
30 29 29 30 27 20 7 340 297 256 241 236 224 215 214 214 212 211 210 206 203 206 210 212 214 213 211 210 210 210 211 212 212 210 209 211 214 215 212 207 203 201 200 200 201 203 206 207 207 207 202 193 186 185 191 202 212 215 212 211 211 210 210 212 215 219 222 225 229 233 238 242 246 251 254 258 262 266 269 272 275 278 280 282 282
30 29 30 33 35 33 27 15 351 302 259 241 222 212 211 210 209 209 208 205 202 204 205 202 201 204 205 204 206 208 208 207 208 208 207 210 218 223 222 216 210 208 207 205 204 206 208 207 204 205 204 200 197 196 196 200 207 211 209 208 209 209 211 215 219 225 231 236 241 246 251 256 261 265 268 271 273 274 276 277 278 280 281 283 283
30 31 30 33 39 41 40 36 28 11 318 246 199 196 203 202 197 197 201 201 200 201 200 192 186 191 196 198 199 202 204 204 204 204 202 204 211 219 222 220 216 213 211 210 208 207 206 204 201 201 203 202 203 203 204 204 207 209 210 210 211 211 213 219 226 233 241 247 253 257 261 265 268 270 271 273 274 275 277 278 280 282 283 285 287
31 34 33 34 38 42 44 44 43 40 27 359 194 177 180 181 179 178 184 191 195 196 195 189 180 178 184 189 193 197 202 202 200 198 197 196 200 208 213 214 215 214 211 211 208 204 202 202 200 200 203 206 209 211 213 215 217 219 221 223 225 226 228 233 239 244 249 253 256 259 262 264 267 270 272 275 277 280 282 283 285 286 287 288 288
33 34 36 38 39 42 44 44 47 52 51 42 39 128 147 149 154 157 160 171 183 188 189 189 186 175 168 175 182 186 192 196 195 194 193 192 194 199 203 204 206 208 208 208 206 201 199 200 201 202 205 209 213 217 221 224 226 230 235 240 244 249 251 253 255 257 259 259 261 263 265 267 271 273 276 281 284 285 286 287 287 287 288 289 289
35 35 37 39 41 43 47 49 53 60 64 63 61 67 83 99 115 127 133 143 160 171 174 176 180 173 161 159 162 164 172 183 187 188 190 191 191 193 197 200 200 200 202 203 203 202 200 200 201 203 206 210 214 219 223 229 234 241 247 251 255 258 260 262 263 265 265 266 267 269 272 274 277 280 284 287 287 287 287 288 289 290 290 292 294
36 37 37 38 40 43 49 54 58 63 69 75 77 78 81 83 85 91 101 113 130 142 146 151 160 160 154 151 149 148 155 166 176 183 188 190 188 187 189 192 193 194 194 193 193 197 200 202 202 204 208 214 220 224 229 235 241 247 251 254 256 258 260 262 264 265 268 271 273 275 278 281 283 287 289 287 285 287 289 290 292 292 291 293 295
33 37 38 37 38 39 45 53 60 67 72 77 84 90 95 98 97 97 96 98 106 116 120 126 138 144 146 148 147 146 147 152 163 176 183 186 187 184 181 179 178 183 189 185 180 184 191 196 200 204 209 216 223 231 238 244 248 251 253 255 257 260 262 265 267 269 273 277 279 282 285 288 290 292 293 291 290 293 296 296 297 297 296 297 300
28 34 36 37 37 37 39 45 53 63 69 73 80 90 98 101 103 108 114 108 105 109 110 110 115 125 136 148 153 156 157 154 158 167 174 180 183 183 181 175 165 163 180 188 182 181 186 192 197 204 210 219 229 240 249 255 257 258 261 262 264 266 268 270 272 274 277 281 284 286 290 293 297 302 305 306 306 306 305 304 304 303 302 303 304
20 26 30 34 36 38 39 42 45 51 62 73 80 88 96 103 108 115 122 121 121 126 126 118 113 113 120 132 143 152 160 162 164 167 173 180 185 188 192 190 181 165 153 178 192 191 191 196 202 209 217 226 241 254 266 274 271 266 264 265 267 271 274 277 280 282 285 289 293 296 299 304 308 311 312 312 311 310 310 309 309 308 307 307 308
13 17 23 27 31 35 39 42 45 49 57 69 79 84 87 97 111 118 117 113 115 126 136 140 142 140 139 142 145 144 153 165 166 164 167 172 176 182 185 185 184 176 107 43 11 324 290 267 251 254 280 288 284 281 285 284 276 269 267 267 270 275 279 283 288 292 296 301 304 307 310 313 314 315 315 315 315 315 315 314 314 314 312 311 313
7 13 19 25 30 34 37 39 42 46 51 58 67 73 71 67 67 72 75 78 81 84 89 97 106 113 121 131 134 130 155 180 187 186 178 167 159 157 156 162 174 159 107 68 45 50 113 191 210 278 295 283 268 260 259 260 260 262 267 272 277 283 288 292 297 300 303 305 308 310 312 314 316 317 318 318 317 317 317 317 317 318 318 319 321
9 16 23 28 32 36 36 35 36 39 43 46 50 56 60 58 56 56 57 57 59 61 65 71 76 75 70 64 56 48 52 78 121 155 163 156 152 150 145 144 145 135 126 127 143 164 186 218 240 252 255 249 245 243 242 245 251 258 266 274 282 288 292 295 298 300 303 305 308 311 315 317 320 321 321 320 320 320 320 321 322 324 326 328 330
27 30 34 34 34 34 34 33 32 33 38 41 43 47 54 58 57 53 51 48 44 41 42 48 55 58 55 50 42 34 34 48 66 79 86 91 96 97 95 95 99 110 127 153 185 217 236 239 234 232 232 232 234 239 245 253 261 268 276 282 287 290 293 296 300 303 307 312 318 323 327 328 327 325 324 324 325 327 328 330 331 332 332 332 332
36 38 37 36 35 32 30 30 28 26 31 36 39 42 49 59 63 62 59 54 47 39 33 29 31 36 39 39 38 33 32 43 56 62 62 66 74 82 85 85 90 104 131 168 193 211 222 225 224 226 231 238 245 253 259 264 268 274 280 285 288 293 298 303 309 320 330 337 338 336 335 334 332 332 334 335 337 338 338 337 336 335 335 334 334
25 32 31 28 28 28 26 26 24 21 22 28 33 36 40 49 60 64 63 60 55 49 45 41 38 37 35 33 34 37 48 66 75 71 67 79 101 125 141 152 161 172 184 194 203 213 221 229 236 239 241 246 251 253 253 256 261 267 275 284 292 301 314 337 8 16 5 352 347 343 342 344 345 345 345 345 345 344 341 339 338 340 343 343 341
3 11 16 14 13 14 17 19 21 21 20 20 24 33 36 41 51 58 60 61 60 55 51 49 48 48 51 62 78 95 113 128 139 146 140 144 158 169 175 180 185 189 194 201 212 223 229 233 236 236 234 235 238 242 247 252 260 265 267 264 153 102 83 66 50 31 13 3 0 360 0 0 359 356 354 352 351 350 349 348 347 347 353 360 2
358 357 1 360 354 357 6 14 18 24 24 18 16 30 43 44 49 52 53 56 57 53 48 45 42 40 39 49 102 151 158 160 164 173 173 168 174 184 191 193 193 194 199 207 222 236 244 245 245 239 235 240 253 262 258 234 170 142 133 124 111 95 77 63 49 35 27 24 20 18 17 15 12 9 7 5 3 1 1 2 358 355 0 13 21
356 354 357 357 352 353 3 13 19 23 24 21 17 28 59 62 62 60 56 52 48 43 39 35 32 32 31 30 32 95 158 162 166 179 186 183 184 192 201 204 205 206 211 220 235 250 261 267 265 254 250 271 274 233 165 143 133 126 120 110 99 88 78 70 59 51 46 42 37 34 31 27 24 24 22 20 17 15 14 15 14 11 12 17 20
358 354 356 357 353 355 7 13 15 15 18 21 22 23 64 82 50 51 54 52 43 33 25 18 14 16 21 23 21 22 61 124 141 163 185 195 198 203 213 221 223 225 228 236 248 266 280 285 280 267 271 276 186 143 133 127 123 119 112 104 97 92 86 78 69 62 58 52 47 44 40 36 35 34 30 27 26 26 26 27 25 22 20 17 14
359 353 357 357 348 360 11 12 13 14 15 19 22 23 20 8 349 344 2 21 27 22 11 2 358 359 2 7 12 18 27 80 175 182 192 200 203 208 222 235 239 241 246 253 261 276 285 276 246 231 245 202 138 132 128 124 121 118 113 108 104 98 92 86 78 70 63 57 53 50 47 42 39 36 33 31 32 34 36 37 33 27 23 20 16
360 354 356 352 335 341 2 9 14 15 11 9 11 14 12 7 358 347 342 347 357 3 358 352 349 348 348 349 349 346 341 314 250 230 226 224 222 224 233 242 246 248 252 257 263 270 268 244 216 208 192 149 136 134 133 130 128 126 122 117 112 103 93 85 77 70 63 59 54 49 45 41 38 35 34 36 38 40 41 38 33 30 28 25 21
1 357 351 337 315 307 339 7 9 5 360 359 359 360 360 358 353 344 335 332 338 345 348 349 350 348 341 334 327 319 314 309 296 277 256 242 236 234 236 240 243 246 252 257 257 250 232 210 195 176 151 138 135 136 138 138 139 138 132 125 117 106 96 89 81 73 64 58 53 48 45 43 40 39 39 40 43 44 41 34 31 31 31 27 22
359 359 349 334 315 306 319 355 358 351 350 353 353 353 351 348 343 336 327 323 325 332 342 348 349 348 344 329 311 304 301 296 292 291 279 253 237 233 233 236 242 250 258 256 232 204 192 184 168 147 135 129 127 130 135 141 145 144 138 133 127 114 101 90 81 71 62 56 53 52 52 53 52 49 44 40 39 40 37 33 32 31 31 28 24
349 350 342 323 303 301 308 324 336 342 344 346 351 354 352 346 339 330 321 315 315 323 334 339 347 2 14 353 301 282 281 287 293 295 287 257 235 230 231 237 245 251 247 207 174 170 170 163 149 138 131 124 120 120 124 130 137 141 140 137 129 115 99 86 75 67 60 55 53 56 58 55 51 48 44 39 37 36 31 29 29 29 29 28 25
325 328 326 301 275 282 298 309 322 340 343 340 347 356 356 350 341 329 318 314 318 325 330 338 357 5 3 353 338 320 303 296 296 292 259 198 198 203 206 209 204 182 156 147 149 154 156 151 143 139 135 130 128 125 122 124 127 130 133 133 124 110 99 88 75 67 59 51 51 61 65 55 44 40 36 34 34 31 25 21 22 23 23 21 19
317 316 315 288 260 266 287 299 319 342 341 336 344 354 356 352 344 331 319 318 325 331 337 353 3 360 355 352 351 350 346 344 107 122 118 113 113 119 124 131 136 135 135 136 139 145 148 145 141 142 143 141 140 136 130 127 127 125 122 118 106 97 97 85 67 57 55 48 45 52 57 49 36 30 26 26 27 24 19 17 17 19 19 15 10
325 323 322 288 254 256 273 293 331 338 331 331 342 351 354 355 350 337 321 314 320 337 345 349 356 356 353 350 352 6 62 94 103 114 115 110 110 114 114 117 123 126 127 129 132 135 137 135 133 135 137 137 138 137 132 129 128 124 119 115 106 107 130 122 70 51 57 57 51 46 45 40 29 19 15 16 18 17 14 12 12 16 20 16 9
344 6 39 17 308 258 232 318 350 336 326 328 339 347 353 356 355 346 329 307 303 334 337 339 359 7 2 354 357 43 107 105 97 102 107 103 105 112 113 115 119 120 118 120 121 122 124 125 124 127 131 134 137 136 132 131 132 131 133 136 133 152 185 178 132 82 70 61 52 40 31 25 18 10 8 9 9 9 8 5 4 12 21 19 12
349 44 54 5 353 355 343 332 329 319 315 319 328 339 351 356 355 353 344 312 302 333 329 327 8 19 10 358 0 67 122 115 101 97 97 91 89 95 98 103 113 116 116 119 119 118 122 125 127 132 136 139 143 144 143 147 151 147 144 142 136 130 138 129 106 91 77 59 46 32 18 11 6 3 3 6 4 360 360 358 1 13 24 20 14
321 295 293 307 315 320 325 333 330 310 304 308 312 322 343 353 352 354 349 315 303 336 323 305 357 26 17 3 4 83 128 121 106 101 99 91 85 85 84 84 92 103 115 128 134 134 137 141 145 149 151 153 157 162 167 173 170 160 149 140 132 122 116 108 99 90 75 57 43 27 8 1 358 354 354 358 356 349 353 360 4 11 19 16 13
299 297 298 300 298 292 294 309 326 322 309 302 300 306 324 340 344 350 347 316 292 318 314 298 321 35 28 12 27 110 128 123 110 104 100 89 80 76 74 73 79 86 101 128 145 151 153 157 163 168 171 171 172 175 180 181 174 166 155 144 136 127 115 104 91 77 61 42 25 9 352 343 337 332 331 335 334 327 330 352 2 359 3 10 11
284 282 295 310 311 298 284 288 310 321 316 298 293 299 310 321 325 334 336 315 287 297 308 299 302 43 41 32 82 110 113 113 106 96 87 76 67 58 52 53 66 81 93 125 151 164 171 175 180 186 189 189 186 183 183 180 174 168 161 151 141 131 118 101 74 54 37 15 360 350 333 323 323 323 322 323 323 316 310 322 349 358 3 10 12
279 271 290 310 311 301 287 286 302 313 312 299 288 293 300 308 315 321 321 306 282 277 291 289 284 10 55 103 173 128 71 65 55 35 28 36 45 42 35 34 42 59 92 136 161 176 189 199 204 207 208 202 192 184 182 179 174 168 163 154 147 139 123 87 47 29 19 6 357 350 338 327 326 325 320 319 320 315 303 301 332 6 13 14 15
267 262 286 309 310 297 284 283 295 308 313 307 295 287 288 298 315 322 317 306 287 273 275 278 276 275 111 158 201 237 312 336 326 321 321 331 360 24 27 26 29 42 84 141 173 185 195 207 214 211 198 188 183 180 179 176 171 166 164 158 153 149 115 60 29 12 5 358 353 351 347 336 327 323 322 322 321 315 303 296 334 46 24 15 18